Flag for U.S.A. Weather past 2 weeks in Grand Junction, Colorado, U.S.A.

Now
77 °F

Scattered clouds.


Feels Like: 79 °F
Forecast: 66 / 85 °F
Wind: 7 mph from Southeast

Location: Walker Field

Current Time: Jul 29, 2014 at 5:07:50 PM

Latest Report: Jul 29, 2014 at 3:53 PM


Visibility: 10 mi

Pressure: 29.99 "Hg

Humidity: 54%

Dew point: 59 °F

Location of Grand JunctionLocation

Historic Weather in Grand Junction — Graph

°F

Grand Junction temperature yesterday

Maximum temperature yesterday: 86 °F (at 2:53 PM)
Minimum temperature yesterday: 68 °F (at 4:53 AM)
Average temperature yesterday: 77 °F

Past Weeks' High & Low Weather Summary

 TemperatureHumidityPressure
High98 °F (Jul 23, 3:53 PM)100% (Jul 29, 2:53 AM)30.12 "Hg (Jul 29, 2:53 AM)
Low62 °F (Jul 18, 5:53 AM)7% (Jul 21, 5:53 PM)29.64 "Hg (Jul 16, 6:53 PM)
Average79 °F32%29.89 "Hg
* Reported Jul 14 3:53 PM — Jul 29 3:53 PM, Grand Junction, Weather by CustomWeather, © 2014

Note: Actual official high and low records may vary slightly from our data, if they occured in-between our weather recording intervals... More about our weather records

Advertising

Grand Junction weather history for previous 24 hours

 ConditionsComfort  
Time TempWeatherWind HumidityBarometerVisibility
3:53 PM
Jul 29
77 °FScattered clouds.7 mph54%29.99 "Hg10 mi
2:53 PM74 °FScattered clouds.6 mph60%30.03 "Hg10 mi
1:53 PM73 °FSunny.5 mph59%30.05 "Hg10 mi
12:53 PM73 °FPassing clouds.3 mph59%30.05 "Hg10 mi
11:53 AM72 °FPassing clouds.No wind71%30.07 "Hg10 mi
10:53 AM67 °FOvercast.3 mph81%30.11 "Hg10 mi
9:53 AM66 °FOvercast.9 mph81%30.11 "Hg10 mi
8:53 AM65 °FOvercast.7 mph85%30.11 "Hg10 mi
7:53 AM64 °FPartly sunny.12 mph87%30.10 "Hg10 mi
6:53 AM64 °FPassing clouds.9 mph84%30.07 "Hg10 mi
5:53 AM62 °FClear.9 mph93%30.06 "Hg10 mi
4:53 AM62 °FPassing clouds.8 mph93%30.06 "Hg10 mi
3:53 AM62 °FLight rain. Overcast.6 mph100%30.08 "Hg10 mi
2:53 AM62 °FHeavy rain. Fog.7 mph100%30.11 "Hg4 mi
1:53 AM63 °FLight rain. Mostly cloudy.10 mph97%30.11 "Hg10 mi
12:53 AM67 °FMostly cloudy.10 mph76%30.11 "Hg10 mi
11:53 PM
Jul 28
70 °FMostly cloudy.16 mph64%30.06 "Hg10 mi
10:53 PM70 °FPassing clouds.6 mph64%30.05 "Hg10 mi
9:53 PM73 °FOvercast.18 mph51%30.03 "Hg10 mi
8:53 PM73 °FMore clouds than sun.15 mph53%30.03 "Hg10 mi
7:53 PM78 °FMostly cloudy.18 mph43%29.99 "Hg10 mi
6:53 PM81 °FOvercast.6 mph38%29.98 "Hg10 mi
5:53 PM84 °FScattered clouds.8 mph33%29.97 "Hg10 mi
Weather by CustomWeather, © 2014

See weather overviewHow to use our weather pages